Location: Atbuku
(36.4936°N, 30.4362°E)
Time: 02:20:07
(UTC+00:00)

Cosmos 2322 Rocket - Pass Details

Date: 11 December 2025
Orbit: 831 x 851 km, 71.0° (Epoch: 14 January)

Event Time Altitude Azimuth Distance (km) Brightness Sun altitude
Rises 17:21:56 0° 188° (S) 3,383 5.5 -31.1°
Reaches altitude 10° 17:24:24 10° 184° (S) 2,455 4.7 -31.6°
Enters shadow 17:25:16 15° 182° (S) 2,140 4.3 -31.8°
